| time (UTC) | temp C | wind direction | speed KPH | gust KPH | rain 1hr cm | rain 24hr cm | rain mn cm | humidity % | barometer mb |
| 20260831035739 | 22 | 116 | 3.2 | 6.4 | 0.00 | 0.00 | 0.00 | 66 | 1012.0 |
| 20260831034739 | 22 | 71 | 3.2 | 12.9 | 0.00 | 0.00 | 0.00 | 65 | 1012.1 |
| 20260831033724 | 22 | 100 | 3.2 | 8.0 | 0.00 | 0.00 | 0.00 | 64 | 1012.2 |
| 20260831032744 | 22 | 46 | 1.6 | 8.0 | 0.00 | 0.00 | 0.00 | 64 | 1012.3 |
| 20260831031735 | 22 | 113 | 1.6 | 9.7 | 0.00 | 0.00 | 0.00 | 64 | 1012.4 |
| 20260831030725 | 22 | 72 | 3.2 | 8.0 | 0.00 | 0.00 | 0.00 | 63 | 1012.4 |
| 20260831025736 | 22 | 102 | 3.2 | 9.7 | 0.00 | 0.00 | 0.00 | 62 | 1012.5 |
| 20260831024725 | 22 | 143 | 1.6 | 6.4 | 0.00 | 0.00 | 0.00 | 62 | 1012.6 |
| 20260831023723 | 22 | 28 | 1.6 | 6.4 | 0.00 | 0.00 | 0.00 | 60 | 1012.7 |
| 20260831022741 | 22 | 189 | 1.6 | 8.0 | 0.00 | 0.00 | 0.00 | 58 | 1012.9 |
| 20260831021725 | 22 | 66 | 1.6 | 8.0 | 0.00 | 0.00 | 0.00 | 60 | 1013.0 |
| 20260831020728 | 22 | 129 | 1.6 | 11.3 | 0.00 | 0.00 | 0.00 | 59 | 1013.1 |
| 20260831015723 | 22 | 217 | 1.6 | 4.8 | 0.00 | 0.00 | 0.00 | 56 | 1013.3 |
| 20260831014727 | 22 | 148 | 0.0 | 3.2 | 0.00 | 0.00 | 0.00 | 56 | 1013.6 |
| 20260831013722 | 21 | 207 | 3.2 | 8.0 | 0.00 | 0.00 | 0.00 | 58 | 1013.8 |
| 20260831012722 | 21 | 192 | 1.6 | 6.4 | 0.00 | 0.00 | 0.00 | 60 | 1014.0 |
| 20260831012227 | 20 | 147 | 1.6 | 4.8 | 0.00 | 0.00 | 0.00 | 60 | 1014.0 |
| 20260831010737 | 20 | 145 | 1.6 | 4.8 | 0.00 | 0.00 | 0.00 | 62 | 1014.2 |
| 20260831005717 | 20 | 293 | 0.0 | 3.2 | 0.00 | 0.00 | 0.00 | 63 | 1014.2 |
| 20260831004722 | 19 | 62 | 1.6 | 6.4 | 0.00 | 0.00 | 0.00 | 64 | 1014.3 |
| 20260831004222 | 18 | 257 | 0.0 | 4.8 | 0.00 | 0.00 | 0.00 | 69 | 1014.5 |
| 20260831002722 | 18 | 308 | 3.2 | 6.4 | 0.00 | 0.00 | 0.00 | 70 | 1014.4 |
| 20260831001728 | 17 | 296 | 0.0 | 4.8 | 0.00 | 0.00 | 0.00 | 72 | 1014.4 |
| 20260831000726 | 16 | 294 | 1.6 | 6.4 | 0.00 | 0.00 | 0.00 | 79 | 1014.4 |
| 20260831000229 | 16 | 48 | 1.6 | 6.4 | 0.00 | 0.00 | 0.00 | 88 | 1014.4 |
| 20260830234721 | 15 | 21 | 1.6 | 6.4 | 0.00 | 0.00 | 0.00 | 94 | 1014.4 |
| 20260830233716 | 13 | 351 | 3.2 | 6.4 | 0.00 | 0.00 | 0.00 | 97 | 1014.4 |
| 20260830232720 | 13 | 42 | 1.6 | 6.4 | 0.00 | 0.00 | 0.00 | 97 | 1014.4 |
| 20260830231709 | 13 | 193 | 0.0 | 4.8 | 0.00 | 0.00 | 0.00 | 97 | 1014.5 |
| 20260830230708 | 12 | 193 | 0.0 | 1.6 | 0.00 | 0.00 | 0.00 | 97 | 1014.5 |
| 20260830225726 | 12 | 193 | 1.6 | 4.8 | 0.00 | 0.00 | 0.00 | 97 | 1014.6 |
| 20260830224713 | 11 | 252 | 0.0 | 1.6 | 0.00 | 0.00 | 0.00 | 97 | 1014.5 |
| 20260830223705 | 11 | 252 | 0.0 | 1.6 | 0.00 | 0.00 | 0.00 | 96 | 1014.6 |
| 20260830222705 | 10 | 292 | 0.0 | 1.6 | 0.00 | 0.00 | 0.00 | 96 | 1014.6 |
| 20260830221704 | 10 | 292 | 0.0 | 3.2 | 0.00 | 0.00 | 0.00 | 96 | 1014.5 |
| 20260830220714 | 10 | 35 | 0.0 | 1.6 | 0.00 | 0.00 | 0.00 | 96 | 1014.4 |
| 20260830215707 | 10 | 35 | 0.0 | 3.2 | 0.00 | 0.00 | 0.00 | 96 | 1014.4 |
| 20260830214719 | 10 | 35 | 1.6 | 4.8 | 0.00 | 0.00 | 0.00 | 96 | 1014.3 |
| 20260830213726 | 10 | 34 | 1.6 | 6.4 | 0.00 | 0.00 | 0.00 | 96 | 1014.2 |
| 20260830213212 | 10 | 30 | 3.2 | 4.8 | 0.00 | 0.00 | 0.00 | 96 | 1014.1 |
| 20260830211717 | 9 | 30 | 3.2 | 6.4 | 0.00 | 0.00 | 0.00 | 96 | 1014.1 |
| 20260830211706 | 10 | 34 | 3.2 | 6.4 | 0.00 | 0.00 | 0.00 | 96 | 1014.2 |
| 20260830205658 | 9 | 40 | 3.2 | 6.4 | 0.00 | 0.00 | 0.00 | 96 | 1014.0 |
| 20260830204700 | 9 | 34 | 3.2 | 4.8 | 0.00 | 0.00 | 0.00 | 96 | 1013.9 |
| 20260830203703 | 9 | 35 | 3.2 | 4.8 | 0.00 | 0.00 | 0.00 | 95 | 1013.7 |
| 20260830202714 | 9 | 33 | 1.6 | 6.4 | 0.00 | 0.00 | 0.00 | 96 | 1013.7 |
| 20260830201717 | 9 | 27 | 3.2 | 4.8 | 0.00 | 0.00 | 0.00 | 96 | 1013.6 |
| 20260830201218 | 9 | 30 | 1.6 | 4.8 | 0.00 | 0.00 | 0.00 | 95 | 1013.6 |
| 20260830195707 | 9 | 37 | 0.0 | 3.2 | 0.00 | 0.00 | 0.00 | 95 | 1013.5 |
| 20260830194702 | 9 | 37 | 0.0 | 0.0 | 0.00 | 0.00 | 0.00 | 95 | 1013.4 |
| 20260830193714 | 9 | 37 | 0.0 | 1.6 | 0.00 | 0.00 | 0.00 | 95 | 1013.2 |
| 20260830193200 | 9 | 37 | 0.0 | 0.0 | 0.00 | 0.00 | 0.00 | 95 | 1013.1 |
| 20260830191655 | 9 | 37 | 1.6 | 4.8 | 0.00 | 0.00 | 0.00 | 95 | 1012.9 |
| 20260830190656 | 9 | 34 | 3.2 | 4.8 | 0.00 | 0.00 | 0.00 | 95 | 1012.8 |
| 20260830185700 | 9 | 40 | 3.2 | 6.4 | 0.00 | 0.00 | 0.00 | 95 | 1012.8 |
| 20260830184702 | 9 | 40 | 4.8 | 6.4 | 0.00 | 0.00 | 0.00 | 95 | 1012.8 |
| 20260830183708 | 9 | 37 | 4.8 | 8.0 | 0.00 | 0.00 | 0.00 | 95 | 1012.8 |
| 20260830182707 | 10 | 44 | 6.4 | 8.0 | 0.00 | 0.00 | 0.00 | 95 | 1012.9 |
| 20260830181712 | 10 | 20 | 4.8 | 6.4 | 0.00 | 0.00 | 0.00 | 95 | 1013.1 |
| 20260830180648 | 10 | 22 | 4.8 | 6.4 | 0.00 | 0.00 | 0.00 | 95 | 1013.1 |
| 20260830175703 | 10 | 22 | 6.4 | 8.0 | 0.00 | 0.00 | 0.00 | 95 | 1013.0 |
| 20260830174657 | 10 | 22 | 4.8 | 6.4 | 0.00 | 0.00 | 0.00 | 95 | 1013.1 |
| 20260830173701 | 10 | 17 | 4.8 | 6.4 | 0.00 | 0.00 | 0.00 | 95 | 1013.2 |
| 20260830172703 | 9 | 19 | 6.4 | 8.0 | 0.00 | 0.00 | 0.00 | 94 | 1013.2 |
| 20260830172153 | 10 | 17 | 4.8 | 8.0 | 0.00 | 0.00 | 0.00 | 94 | 1013.2 |
| 20260830170652 | 10 | 37 | 0.0 | 3.2 | 0.00 | 0.00 | 0.00 | 95 | 1013.4 |
| 20260830170210 | 10 | 37 | 0.0 | 3.2 | 0.00 | 0.00 | 0.00 | 95 | 1013.4 |
| 20260830163700 | 10 | 37 | 3.2 | 4.8 | 0.00 | 0.00 | 0.00 | 95 | 1013.3 |
| 20260830162659 | 10 | 37 | 1.6 | 4.8 | 0.00 | 0.00 | 0.00 | 95 | 1013.3 |
| 20260830161650 | 10 | 37 | 3.2 | 4.8 | 0.00 | 0.00 | 0.00 | 95 | 1013.4 |
| 20260830160649 | 10 | 37 | 3.2 | 4.8 | 0.00 | 0.00 | 0.00 | 95 | 1013.6 |
| 20260830160156 | 10 | 37 | 3.2 | 6.4 | 0.00 | 0.00 | 0.00 | 94 | 1013.6 |
| 20260830154719 | 10 | 16 | 3.2 | 6.4 | 0.00 | 0.00 | 0.00 | 94 | 1013.6 |
| 20260830153657 | 10 | 25 | 3.2 | 6.4 | 0.00 | 0.00 | 0.00 | 94 | 1013.7 |
| 20260830152704 | 10 | 26 | 4.8 | 6.4 | 0.00 | 0.00 | 0.00 | 94 | 1013.7 |
| 20260830151650 | 10 | 22 | 4.8 | 6.4 | 0.00 | 0.00 | 0.00 | 94 | 1013.7 |
| 20260830151154 | 10 | 31 | 4.8 | 6.4 | 0.00 | 0.00 | 0.00 | 94 | 1013.7 |
| 20260830145649 | 10 | 32 | 3.2 | 4.8 | 0.00 | 0.00 | 0.00 | 93 | 1013.8 |
| 20260830144643 | 10 | 32 | 3.2 | 4.8 | 0.00 | 0.00 | 0.00 | 93 | 1013.9 |
| 20260830143647 | 10 | 32 | 3.2 | 4.8 | 0.00 | 0.00 | 0.00 | 93 | 1013.8 |
| 20260830142649 | 10 | 32 | 3.2 | 4.8 | 0.00 | 0.00 | 0.00 | 93 | 1013.9 |
| 20260830141655 | 10 | 32 | 3.2 | 6.4 | 0.00 | 0.00 | 0.00 | 93 | 1013.9 |
| 20260830140646 | 10 | 35 | 0.0 | 3.2 | 0.00 | 0.00 | 0.00 | 93 | 1013.8 |
| 20260830140137 | 10 | 35 | 0.0 | 1.6 | 0.00 | 0.00 | 0.00 | 93 | 1013.9 |
| 20260830134649 | 10 | 35 | 1.6 | 3.2 | 0.00 | 0.00 | 0.00 | 93 | 1013.9 |
| 20260830134152 | 10 | 35 | 0.0 | 0.0 | 0.00 | 0.00 | 0.00 | 93 | 1013.8 |
| 20260830133139 | 10 | 35 | 0.0 | 0.0 | 0.00 | 0.00 | 0.00 | 93 | 1013.8 |
| 20260830132646 | 10 | 35 | 0.0 | 0.0 | 0.00 | 0.00 | 0.00 | 93 | 1013.8 |
| 20260830131631 | 10 | 35 | 1.6 | 3.2 | 0.00 | 0.00 | 0.00 | 93 | 1013.9 |
| 20260830130635 | 10 | 35 | 0.0 | 0.0 | 0.00 | 0.00 | 0.00 | 93 | 1013.8 |
| 20260830125643 | 10 | 35 | 0.0 | 1.6 | 0.00 | 0.00 | 0.00 | 93 | 1013.8 |
| 20260830124635 | 10 | 35 | 0.0 | 3.2 | 0.00 | 0.00 | 0.00 | 93 | 1013.9 |
| 20260830123627 | 10 | 35 | 0.0 | 1.6 | 0.00 | 0.00 | 0.00 | 93 | 1013.7 |
| 20260830122632 | 11 | 35 | 3.2 | 4.8 | 0.00 | 0.00 | 0.00 | 93 | 1013.6 |
| 20260830121627 | 11 | 33 | 1.6 | 4.8 | 0.00 | 0.00 | 0.00 | 92 | 1013.6 |
| 20260830120632 | 11 | 34 | 3.2 | 4.8 | 0.00 | 0.00 | 0.00 | 93 | 1013.6 |
| 20260830115629 | 11 | 30 | 3.2 | 4.8 | 0.00 | 0.00 | 0.00 | 92 | 1013.6 |
| 20260830115142 | 11 | 30 | 4.8 | 4.8 | 0.00 | 0.00 | 0.00 | 92 | 1013.6 |
| 20260830114131 | 11 | 30 | 1.6 | 4.8 | 0.00 | 0.00 | 0.00 | 92 | 1013.7 |
| 20260830112626 | 11 | 30 | 1.6 | 3.2 | 0.00 | 0.00 | 0.00 | 92 | 1013.6 |
| 20260830111629 | 11 | 30 | 1.6 | 3.2 | 0.00 | 0.00 | 0.00 | 91 | 1013.6 |
| 20260830110631 | 11 | 30 | 0.0 | 3.2 | 0.00 | 0.00 | 0.00 | 91 | 1013.6 |
| 20260830105625 | 11 | 30 | 0.0 | 3.2 | 0.00 | 0.00 | 0.00 | 90 | 1013.5 |
| 20260830105125 | 11 | 30 | 0.0 | 4.8 | 0.00 | 0.00 | 0.00 | 90 | 1013.3 |
| 20260830103626 | 11 | 30 | 0.0 | 1.6 | 0.00 | 0.00 | 0.00 | 90 | 1013.3 |
| 20260830102622 | 12 | 30 | 0.0 | 1.6 | 0.00 | 0.00 | 0.00 | 90 | 1013.1 |
| 20260830101632 | 12 | 30 | 3.2 | 4.8 | 0.00 | 0.00 | 0.00 | 89 | 1013.2 |
| 20260830100621 | 12 | 17 | 1.6 | 3.2 | 0.00 | 0.00 | 0.00 | 89 | 1013.2 |
| 20260830095622 | 12 | 17 | 1.6 | 3.2 | 0.00 | 0.00 | 0.00 | 88 | 1013.0 |
| 20260830094625 | 12 | 17 | 0.0 | 3.2 | 0.00 | 0.00 | 0.00 | 87 | 1012.9 |
| 20260830093621 | 12 | 17 | 1.6 | 4.8 | 0.00 | 0.00 | 0.00 | 86 | 1012.9 |
| 20260830092623 | 13 | 17 | 0.0 | 1.6 | 0.00 | 0.00 | 0.00 | 85 | 1012.9 |
| 20260830091621 | 13 | 17 | 0.0 | 3.2 | 0.00 | 0.00 | 0.00 | 84 | 1012.8 |
| 20260830090629 | 13 | 17 | 1.6 | 4.8 | 0.00 | 0.00 | 0.00 | 84 | 1012.8 |
| 20260830085613 | 14 | 17 | 0.0 | 3.2 | 0.00 | 0.00 | 0.00 | 82 | 1012.8 |
| 20260830084615 | 14 | 18 | 1.6 | 6.4 | 0.00 | 0.00 | 0.00 | 82 | 1012.6 |
| 20260830083611 | 14 | 32 | 0.0 | 3.2 | 0.00 | 0.00 | 0.00 | 81 | 1012.4 |
| 20260830082629 | 15 | 32 | 0.0 | 0.0 | 0.00 | 0.00 | 0.00 | 81 | 1012.4 |
| 20260830082122 | 15 | 32 | 0.0 | 3.2 | 0.00 | 0.00 | 0.00 | 78 | 1012.3 |
| 20260830080628 | 15 | 32 | 0.0 | 1.6 | 0.00 | 0.00 | 0.00 | 76 | 1012.2 |
| 20260830075630 | 16 | 32 | 0.0 | 3.2 | 0.00 | 0.00 | 0.00 | 75 | 1012.2 |
| 20260830074628 | 16 | 56 | 1.6 | 3.2 | 0.00 | 0.00 | 0.00 | 73 | 1012.0 |
| 20260830073632 | 17 | 42 | 1.6 | 4.8 | 0.00 | 0.00 | 0.00 | 71 | 1012.0 |
| 20260830072625 | 17 | 60 | 0.0 | 4.8 | 0.00 | 0.00 | 0.00 | 69 | 1012.0 |
| 20260830071629 | 18 | 40 | 0.0 | 1.6 | 0.00 | 0.00 | 0.00 | 68 | 1012.0 |
| 20260830070607 | 19 | 40 | 0.0 | 4.8 | 0.00 | 0.00 | 0.00 | 67 | 1012.0 |
| 20260830070137 | 20 | 44 | 1.6 | 3.2 | 0.00 | 0.00 | 0.00 | 66 | 1011.9 |
| 20260830064623 | 20 | 73 | 1.6 | 6.4 | 0.00 | 0.00 | 0.00 | 66 | 1011.9 |
| 20260830063616 | 20 | 28 | 1.6 | 4.8 | 0.00 | 0.00 | 0.00 | 66 | 1012.0 |
| 20260830062627 | 20 | 165 | 0.0 | 3.2 | 0.00 | 0.00 | 0.00 | 66 | 1011.9 |
| 20260830061629 | 20 | 117 | 1.6 | 9.7 | 0.00 | 0.00 | 0.00 | 65 | 1011.9 |
| 20260830060624 | 20 | 118 | 3.2 | 12.9 | 0.00 | 0.00 | 0.00 | 64 | 1011.9 |
| 20260830055618 | 20 | 109 | 3.2 | 6.4 | 0.00 | 0.00 | 0.00 | 64 | 1011.9 |
| 20260830054619 | 20 | 111 | 3.2 | 14.5 | 0.00 | 0.00 | 0.00 | 62 | 1012.0 |
| 20260830053631 | 20 | 98 | 3.2 | 11.3 | 0.00 | 0.00 | 0.00 | 62 | 1012.0 |
| 20260830052610 | 20 | 130 | 3.2 | 9.7 | 0.00 | 0.00 | 0.00 | 63 | 1012.0 |
| 20260830051612 | 21 | 100 | 4.8 | 9.7 | 0.00 | 0.00 | 0.00 | 63 | 1012.1 |
| 20260830050624 | 21 | 144 | 3.2 | 11.3 | 0.00 | 0.00 | 0.00 | 64 | 1012.1 |
| 20260830045636 | 21 | 111 | 4.8 | 9.7 | 0.00 | 0.00 | 0.00 | 64 | 1012.1 |
| 20260830044612 | 21 | 132 | 3.2 | 9.7 | 0.00 | 0.00 | 0.00 | 64 | 1012.1 |
| 20260830043617 | 21 | 166 | 4.8 | 9.7 | 0.00 | 0.00 | 0.00 | 62 | 1012.1 |
| 20260830042614 | 22 | 105 | 3.2 | 14.5 | 0.00 | 0.00 | 0.00 | 62 | 1012.1 |
| 20260830041608 | 22 | 118 | 3.2 | 9.7 | 0.00 | 0.00 | 0.00 | 60 | 1012.1 |
| 20260830040611 | 21 | 123 | 6.4 | 14.5 | 0.00 | 0.00 | 0.00 | 60 | 1012.1 |